Hauptseite
METAR-TAF:

METAR-TAF

Flughäfen :

Metz-Nancy-Lorraine, Frankreich

Flughafen Metz-Nancy-Lothringen

Breite: 48-59N, Länge: 006-15E, Höhe: 264 m

Beobachtung

Neuester Wetterbericht von vor 25 Minuten, um 09:30 UTC
Wind 5 kt aus Ost/Südost
Temperatur 21°C
Luftfeuchtigkeit 49%
Luftdruck 1027 hPa
Sichtweite 10 km oder mehr
keine Wolken unter 1500 m und keine Kumulonimbus oder Gewitterwolken

METAR: LFJL 190930Z AUTO 12005KT CAVOK 21/10 Q1027 NOSIG

Zeit: 11:55 (09:55 UTC)

Prognose

Neuester Wetterbericht von vor 4 Stunden und 55 Minuten, um 05:00 UTC
Gültige Prognose vom 19 um 06 UTC bis 20 um 06 UTC
Wind 8 kt aus Ost
Sichtweite 10 km oder mehr
keine Wolken unter 1500 m und keine Kumulonimbus oder Gewitterwolken

TAF: LFJL 190500Z 1906/2006 10008KT CAVOK

Wetterbeobachtungen und Prognosen von mehr als 4000 Flughäfen (METAR und TAF Bericht).

Die verfügbaren Stationen werden durch gelbe und rote Markierungen auf der Karte dargestellt.

Führen Sie die Maus auf sie, um den Namen der Station zu sehen.

Darauf klicken, um die Beobachtung von Wetterbeobachtungen und Prognosen zu sehen.

Um die Karte zu ändern : klicken Sie auf den grünen Tasten mit einem schwarzen Kreuz Zum Vergrößern, auf den grünen Button mit einem Gedankenstrich zu verkleinern, oder auf die grünen Pfeile für benachbarte Karten.


METAR-TAF: